Regional Weather Roundup
Issued by NWS

Home | Current Version | Previous Version | Text Only | Print | Product List | Glossary On
Versions: 1 2 3 4 5 6 7 8 9 10 11 12 13 14 15 16 17 18 19 20 21 22 23 24 25 26 27 28 29 30 31 32 33 34 35 36 37 38 39 40 41 42 43 44 45 46 47 48 49 50
000
ASUS46 KSEW 300110
RWRWA

WASHINGTON REGIONAL WEATHER ROUNDUP
NATIONAL WEATHER SERVICE SEATTLE WA
600 PM PDT FRI MAY 29 2015

NOTE:"FAIR" INDICATES FEW OR NO CLOUDS BELOW 12,000 FEET WITH NO
SIGNIFICANT WEATHER AND/OR OBSTRUCTIONS TO VISIBILITY.

WAZ505-507>509-300200-
SEATTLE, TACOMA, EVERETT, AND VICINITY

CITY           SKY/WX    TMP DP  RH WIND       PRES   REMARKS
EVERETT        MOSUNNY   69  49  48 N10       29.92S
BOEING FIELD   MOSUNNY   80  53  39 S7        29.88F
RENTON         MOSUNNY   79  54  41 SW7       29.88F
SEATAC AIRPORT PTSUNNY   78  53  41 SW8       29.91S
JBLM-MCCHORD   MOSUNNY   77  56  47 W10       29.90S
PUYALLUP       FAIR      79  59  50 CALM      29.91S
BREMERTON      MOSUNNY   77  54  44 S8        29.92S
JBLM-FT LEWIS  MOSUNNY   76  54  46 W12       29.90S
TACOMA NARROWS MOSUNNY   75  54  47 SW8       29.90F
$$

WAZ001-503-506-510-514-515-300200-
NORTH INTERIOR

CITY           SKY/WX    TMP DP  RH WIND       PRES   REMARKS
BELLINGHAM     SUNNY     70  54  56 S8        29.88F
FRIDAY HARBOR  SUNNY     67  46  47 SW7       29.89F
EASTSOUND      SUNNY     72  52  49 S12       29.86F
PORT ANGELES   SUNNY     65  49  56 W9        29.93S
PORT TOWNSEND  FAIR      68  46  45 NW9G15    29.90F
NAS WHIDBEY    PTSUNNY   61  58  90 SW6       29.95F
ARLINGTON      SUNNY     73  52  46 NW12      29.90S
BURLINGTON     SUNNY     72  52  49 SW6       29.90F
$$

WAZ020-022-039-040-504-511-512-300200-
SOUTHWEST INTERIOR

CITY           SKY/WX    TMP DP  RH WIND       PRES   REMARKS
SHELTON        MOSUNNY   69  51  52 SW21G29   29.89F
OLYMPIA        MOSUNNY   76  52  43 SW10      29.90S
CHEHALIS       FAIR      75  57  53 N10       29.92S HAZE
KELSO          PTSUNNY   70  55  60 W7        29.96S
VANCOUVER      PTSUNNY   80  55  42 NW8       29.87F
SCAPPOOSE, OR  PTSUNNY   78  57  48 N9        29.87F
PORTLAND, OR   CLOUDY    81  57  43 NW8       29.87F
$$

WAZ021-516-517-300200-
WASHINGTON COAST

CITY           SKY/WX    TMP DP  RH WIND       PRES   REMARKS
FORKS          MOSUNNY   57  50  77 W7        29.99F
HOQUIAM        CLOUDY    57  50  77 W13       30.00F HAZE
ASTORIA, OR    CLOUDY    57  48  72 NW10      30.01F
$$

WAZ019-023-024-040-518-519-300200-
CASCADE MOUNTAINS AND COLUMBIA GORGE

CITY           SKY/WX    TMP DP  RH WIND       PRES   REMARKS
TROUTDALE, OR  PTSUNNY   81  56  42 NW5       29.86F
THE DALLES, OR PTSUNNY   85  53  33 NW16      29.78S
$$

WAZ026-027-041>044-520-521-300200-
EAST SLOPES

CITY           SKY/WX    TMP DP  RH WIND       PRES   REMARKS
OMAK           LGT RAIN  68  61  78 W5        29.89F
WENATCHEE      CLOUDY    77  53  43 W12       29.85S
ELLENSBURG     PTSUNNY   78  58  49 NW15      29.85F
YAKIMA         PTSUNNY   88  48  25 SE6       29.80F
$$

WAZ028-034-035-300200-
COLUMBIA BASIN

CITY           SKY/WX    TMP DP  RH WIND       PRES   REMARKS
EPHRATA        PTSUNNY   86  42  21 SW7       29.83F
MOSES LAKE     PTSUNNY   88  45  22 SW7       29.83F
PASCO          PTSUNNY   92  42  17 E5        29.77F
HERMISTON, OR  PTSUNNY   81  53  37 SE18G29   29.78R HAZE
$$

WAZ036>038-300200-
NORTHEAST WASHINGTON

CITY           SKY/WX    TMP DP  RH WIND       PRES   REMARKS
SPOKANE GEIGER MOSUNNY   81  42  25 CALM      29.92F
SPOKANE FELTS  MOSUNNY   82  45  27 SE6       29.90F
FAIRCHILD AFB  MOSUNNY   78  47  33 W3        29.92F
COEURDALENE,ID PTSUNNY   79  46  31 N5        29.90F
DEER PARK      MOSUNNY   78  47  33 S3        29.92F
$$

WAZ029>033-300200-
SOUTHEAST WASHINGTON

CITY           SKY/WX    TMP DP  RH WIND       PRES   REMARKS
PULLMAN        PTSUNNY   79  49  34 SE9       29.94F
LEWISTON, ID   PTSUNNY   84  42  22 S10G25    29.86F
WALLA WALLA    PTSUNNY   90  41  18 NE7       29.82F
PENDLETON, OR  CLOUDY    74  53  48 VRB7      29.83R THUNDER
$$


USA.gov is the U.S. government's official web portal to all federal, state and local government web resources and services.